Find STARLINK-37849

NORAD ID: 799500944 Int'l Des: 2026-130X Constellation: starlink operational

Current View

Loading 3D Globe...

About STARLINK-37849

STARLINK-37849 (NORAD 799500944) is a starlink constellation satellite launched Jun 7, 2026

About STARLINK-37849

Description loading...

Upcoming Passes

Passes for default location (London). Set your location on the main map for personalized predictions.

Altitude History

Loading altitude history...

Two-Line Element Set

1 99999C 2026130X 26163.05743056 .00466640 00000-0 694300-4 0 1632
2 99999 97.2792 182.7699 0011288 273.7434 164.8035 16.04482369 16
Epoch: Jun 12, 2026 • Age: 5 hours